Location: Navarre
(52.9016°N, 113.4144°W)
Time: 04:08:38
(UTC+00:00)

Envisat - Pass Details

Date: 07 December 2023
Orbit: 762 x 764 km, 98.3° (Epoch: 22 February)

Event Time Altitude Azimuth Distance (km) Brightness Sun altitude
Rises 12:00:07 0° 11° (NNE) 3,246 6.4 -30.5°
Reaches altitude 10° 12:02:29 10° 7° (N) 2,315 5.5 -30.2°
Enters shadow 12:02:53 12° 5° (N) 2,163 5.4 -30.1°
